| time (UTC) | temp F | wind direction | speed knots | gust knots | rain 1hr in | rain 24hr in | rain mn in | humidity % | barometer mb |
| 20260504234522 | 72 | 251 | 10.4 | 17.4 | 0.00 | 0.00 | 0.00 | 34 | 1015.4 |
| 20260504234019 | 72 | 247 | 10.4 | 14.8 | 0.00 | 0.00 | 0.00 | 33 | 1015.4 |
| 20260504233514 | 71 | 260 | 7.8 | 12.2 | 0.00 | 0.00 | 0.00 | 34 | 1015.1 |
| 20260504233011 | 73 | 249 | 5.2 | 6.1 | 0.00 | 0.00 | 0.00 | 33 | 1015.2 |
| 20260504232508 | 73 | 237 | 14.8 | 20.0 | 0.00 | 0.00 | 0.00 | 33 | 1015.4 |
| 20260504232006 | 74 | 312 | 5.2 | 12.2 | 0.00 | 0.00 | 0.00 | 32 | 1015.2 |
| 20260504231502 | 73 | 295 | 8.7 | 15.6 | 0.00 | 0.00 | 0.00 | 33 | 1015.4 |
| 20260504230958 | 73 | 259 | 9.6 | 14.8 | 0.00 | 0.00 | 0.00 | 32 | 1015.2 |
| 20260504230455 | 74 | 244 | 13.0 | 18.2 | 0.00 | 0.00 | 0.00 | 32 | 1015.3 |
| 20260504225954 | 73 | 268 | 6.1 | 15.6 | 0.00 | 0.00 | 0.00 | 33 | 1015.4 |
| 20260504225450 | 73 | 250 | 7.8 | 19.1 | 0.00 | 0.00 | 0.00 | 33 | 1015.3 |
| 20260504224947 | 73 | 277 | 5.2 | 16.5 | 0.00 | 0.00 | 0.00 | 33 | 1015.3 |
| 20260504224444 | 73 | 307 | 8.7 | 15.6 | 0.00 | 0.00 | 0.00 | 33 | 1015.1 |
| 20260504223941 | 74 | 336 | 6.1 | 9.6 | 0.00 | 0.00 | 0.00 | 32 | 1015.2 |
| 20260504223437 | 74 | 240 | 13.0 | 15.6 | 0.00 | 0.00 | 0.00 | 31 | 1015.5 |
| 20260504222933 | 73 | 328 | 7.8 | 14.8 | 0.00 | 0.00 | 0.00 | 32 | 1015.3 |
| 20260504222431 | 73 | 303 | 5.2 | 20.0 | 0.00 | 0.00 | 0.00 | 32 | 1015.6 |
| 20260504221928 | 73 | 278 | 11.3 | 19.1 | 0.00 | 0.00 | 0.00 | 33 | 1015.6 |
| 20260504221425 | 74 | 273 | 5.2 | 16.5 | 0.00 | 0.00 | 0.00 | 31 | 1015.5 |
| 20260504220922 | 74 | 294 | 4.3 | 12.2 | 0.00 | 0.00 | 0.00 | 32 | 1015.6 |
| 20260504220419 | 75 | 247 | 8.7 | 17.4 | 0.00 | 0.00 | 0.00 | 31 | 1015.3 |
| 20260504215916 | 76 | 239 | 11.3 | 13.0 | 0.00 | 0.00 | 0.00 | 31 | 1015.6 |
| 20260504215413 | 74 | 291 | 5.2 | 13.0 | 0.00 | 0.00 | 0.00 | 32 | 1015.5 |
| 20260504214909 | 74 | 315 | 7.0 | 13.9 | 0.00 | 0.00 | 0.00 | 31 | 1015.6 |
| 20260504214405 | 74 | 252 | 7.8 | 11.3 | 0.00 | 0.00 | 0.00 | 31 | 1015.6 |
| 20260504213902 | 76 | 291 | 5.2 | 13.9 | 0.00 | 0.00 | 0.00 | 30 | 1015.8 |
| 20260504213358 | 75 | 327 | 4.3 | 5.2 | 0.00 | 0.00 | 0.00 | 31 | 1015.9 |
| 20260504212855 | 73 | 252 | 5.2 | 12.2 | 0.00 | 0.00 | 0.00 | 32 | 1015.9 |
| 20260504212351 | 75 | 345 | 6.1 | 12.2 | 0.00 | 0.00 | 0.00 | 31 | 1015.8 |
| 20260504211849 | 73 | 312 | 7.0 | 15.6 | 0.00 | 0.00 | 0.00 | 32 | 1016.0 |
| 20260504211345 | 74 | 292 | 1.7 | 5.2 | 0.00 | 0.00 | 0.00 | 31 | 1015.9 |
| 20260504210843 | 73 | 1 | 4.3 | 8.7 | 0.00 | 0.00 | 0.00 | 33 | 1015.9 |
| 20260504210340 | 74 | 289 | 5.2 | 11.3 | 0.00 | 0.00 | 0.00 | 33 | 1016.0 |
| 20260504205837 | 73 | 253 | 5.2 | 9.6 | 0.00 | 0.00 | 0.00 | 34 | 1016.3 |
| 20260504205335 | 73 | 303 | 8.7 | 13.9 | 0.00 | 0.00 | 0.00 | 34 | 1016.0 |
| 20260504204832 | 73 | 311 | 3.5 | 10.4 | 0.00 | 0.00 | 0.00 | 33 | 1016.2 |
| 20260504204331 | 75 | 281 | 7.0 | 8.7 | 0.00 | 0.00 | 0.00 | 33 | 1016.3 |
| 20260504203830 | 75 | 280 | 1.7 | 4.3 | 0.00 | 0.00 | 0.00 | 32 | 1016.3 |
| 20260504203326 | 73 | 287 | 3.5 | 9.6 | 0.00 | 0.00 | 0.00 | 34 | 1016.2 |
| 20260504202822 | 74 | 336 | 6.1 | 8.7 | 0.00 | 0.00 | 0.00 | 34 | 1016.5 |
| 20260504202320 | 74 | 87 | 0.9 | 4.3 | 0.00 | 0.00 | 0.00 | 32 | 1016.3 |
| 20260504201816 | 74 | 180 | 1.7 | 3.5 | 0.00 | 0.00 | 0.00 | 33 | 1016.7 |
| 20260504201313 | 73 | 97 | 3.5 | 5.2 | 0.00 | 0.00 | 0.00 | 34 | 1016.7 |
| 20260504200811 | 73 | 5 | 4.3 | 8.7 | 0.00 | 0.00 | 0.00 | 34 | 1016.6 |
| 20260504200307 | 71 | 295 | 5.2 | 10.4 | 0.00 | 0.00 | 0.00 | 35 | 1016.7 |
| 20260504195803 | 71 | 232 | 2.6 | 3.5 | 0.00 | 0.00 | 0.00 | 36 | 1017.1 |
| 20260504195259 | 71 | 348 | 2.6 | 7.8 | 0.00 | 0.00 | 0.00 | 36 | 1016.9 |
| 20260504194756 | 70 | 317 | 8.7 | 13.9 | 0.00 | 0.00 | 0.00 | 37 | 1016.9 |
| 20260504194253 | 69 | 275 | 6.1 | 12.2 | 0.00 | 0.00 | 0.00 | 38 | 1017.2 |
| 20260504193749 | 70 | 305 | 13.0 | 18.2 | 0.00 | 0.00 | 0.00 | 37 | 1017.1 |
| 20260504193246 | 71 | 314 | 6.1 | 7.8 | 0.00 | 0.00 | 0.00 | 37 | 1017.3 |
| 20260504192744 | 72 | 263 | 1.7 | 4.3 | 0.00 | 0.00 | 0.00 | 36 | 1017.3 |
| 20260504192242 | 71 | 335 | 3.5 | 4.3 | 0.00 | 0.00 | 0.00 | 35 | 1017.5 |
| 20260504191741 | 70 | 333 | 7.0 | 10.4 | 0.00 | 0.00 | 0.00 | 37 | 1017.7 |
| 20260504191237 | 70 | 4 | 2.6 | 7.8 | 0.00 | 0.00 | 0.00 | 37 | 1017.6 |
| 20260504190732 | 69 | 48 | 2.6 | 9.6 | 0.00 | 0.00 | 0.00 | 38 | 1018.0 |
| 20260504190229 | 70 | 302 | 5.2 | 7.0 | 0.00 | 0.00 | 0.00 | 36 | 1017.7 |
| 20260504185726 | 70 | 334 | 1.7 | 5.2 | 0.00 | 0.00 | 0.00 | 36 | 1017.9 |
| 20260504185223 | 69 | 290 | 8.7 | 12.2 | 0.00 | 0.00 | 0.00 | 37 | 1017.8 |
| 20260504184719 | 69 | 357 | 1.7 | 7.0 | 0.00 | 0.00 | 0.00 | 38 | 1017.9 |
| 20260504184215 | 69 | 234 | 7.8 | 11.3 | 0.00 | 0.00 | 0.00 | 38 | 1017.8 |
| 20260504183711 | 70 | 235 | 12.2 | 16.5 | 0.00 | 0.00 | 0.00 | 36 | 1017.8 |
| 20260504183208 | 70 | 114 | 4.3 | 5.2 | 0.00 | 0.00 | 0.00 | 36 | 1017.9 |
| 20260504182706 | 69 | 324 | 5.2 | 6.1 | 0.00 | 0.00 | 0.00 | 36 | 1017.8 |
| 20260504182203 | 69 | 58 | 2.6 | 5.2 | 0.00 | 0.00 | 0.00 | 36 | 1017.9 |
| 20260504181700 | 70 | 107 | 1.7 | 4.3 | 0.00 | 0.00 | 0.00 | 35 | 1018.0 |
| 20260504181158 | 70 | 43 | 0.9 | 3.5 | 0.00 | 0.00 | 0.00 | 35 | 1018.0 |
| 20260504180657 | 70 | 93 | 2.6 | 5.2 | 0.00 | 0.00 | 0.00 | 35 | 1017.9 |
| 20260504180155 | 70 | 100 | 2.6 | 3.5 | 0.00 | 0.00 | 0.00 | 36 | 1017.9 |
| 20260504175652 | 70 | 93 | 4.3 | 5.2 | 0.00 | 0.00 | 0.00 | 36 | 1017.7 |
| 20260504175148 | 69 | 79 | 3.5 | 4.3 | 0.00 | 0.00 | 0.00 | 36 | 1017.8 |
| 20260504174647 | 69 | 339 | 1.7 | 3.5 | 0.00 | 0.00 | 0.00 | 37 | 1017.8 |
| 20260504174143 | 69 | 85 | 1.7 | 3.5 | 0.00 | 0.00 | 0.00 | 37 | 1017.9 |
| 20260504173640 | 68 | 72 | 3.5 | 7.0 | 0.00 | 0.00 | 0.00 | 38 | 1017.6 |
| 20260504173138 | 67 | 88 | 5.2 | 5.2 | 0.00 | 0.00 | 0.00 | 38 | 1017.6 |
| 20260504172634 | 68 | 230 | 3.5 | 5.2 | 0.00 | 0.00 | 0.00 | 38 | 1017.7 |
| 20260504172131 | 68 | 325 | 4.3 | 7.0 | 0.00 | 0.00 | 0.00 | 38 | 1017.5 |
| 20260504171627 | 66 | 329 | 5.2 | 11.3 | 0.00 | 0.00 | 0.00 | 39 | 1017.5 |
| 20260504171125 | 66 | 276 | 1.7 | 9.6 | 0.00 | 0.00 | 0.00 | 40 | 1017.6 |
| 20260504170621 | 66 | 321 | 7.8 | 8.7 | 0.00 | 0.00 | 0.00 | 40 | 1017.5 |
| 20260504170118 | 65 | 330 | 4.3 | 11.3 | 0.00 | 0.00 | 0.00 | 41 | 1017.7 |
| 20260504150958 | 63 | 329 | 6.1 | 17.4 | 0.00 | 0.00 | 0.00 | 43 | 1016.9 |
| 20260504150455 | 62 | 284 | 2.6 | 11.3 | 0.00 | 0.00 | 0.00 | 44 | 1016.8 |
| 20260504140916 | 62 | 221 | 3.5 | 13.9 | 0.00 | 0.00 | 0.00 | 46 | 1016.6 |
| 20260504140412 | 62 | 245 | 5.2 | 14.8 | 0.00 | 0.00 | 0.00 | 46 | 1016.3 |
| 20260504130338 | 62 | 263 | 3.5 | 13.9 | 0.00 | 0.00 | 0.00 | 45 | 1016.3 |
| 20260504120300 | 62 | 353 | 5.2 | 9.6 | 0.00 | 0.00 | 0.00 | 47 | 1015.5 |
| 20260504110224 | 63 | 266 | 4.3 | 11.3 | 0.00 | 0.00 | 0.00 | 47 | 1015.5 |
| 20260504100147 | 62 | 251 | 2.6 | 5.2 | 0.00 | 0.00 | 0.00 | 50 | 1015.2 |
| 20260504090110 | 63 | 9 | 3.5 | 7.0 | 0.00 | 0.00 | 0.00 | 50 | 1015.7 |
| 20260504081540 | 63 | 122 | 0.9 | 1.7 | 0.00 | 0.00 | 0.00 | 46 | 1017.3 |
| 20260504081036 | 63 | 130 | 0.0 | 2.6 | 0.00 | 0.00 | 0.00 | 45 | 1017.3 |
| 20260504080533 | 63 | 248 | 0.0 | 2.6 | 0.00 | 0.00 | 0.00 | 45 | 1017.1 |
| 20260504050346 | 65 | 257 | 7.8 | 18.2 | 0.00 | 0.00 | 0.00 | 43 | 1014.1 |
| 20260504045844 | 65 | 288 | 5.2 | 13.9 | 0.00 | 0.00 | 0.00 | 42 | 1014.1 |
| 20260504045343 | 65 | 303 | 7.8 | 13.9 | 0.00 | 0.00 | 0.00 | 43 | 1014.2 |
| 20260504044841 | 66 | 314 | 11.3 | 13.0 | 0.00 | 0.00 | 0.00 | 42 | 1014.1 |
| 20260504044338 | 66 | 299 | 6.1 | 10.4 | 0.00 | 0.00 | 0.00 | 42 | 1014.2 |
| 20260504043836 | 66 | 301 | 3.5 | 5.2 | 0.00 | 0.00 | 0.00 | 42 | 1014.0 |
| 20260504043332 | 66 | 254 | 6.1 | 11.3 | 0.00 | 0.00 | 0.00 | 42 | 1014.2 |
| 20260504042830 | 66 | 246 | 5.2 | 5.2 | 0.00 | 0.00 | 0.00 | 41 | 1014.1 |
| 20260504042326 | 66 | 188 | 1.7 | 3.5 | 0.00 | 0.00 | 0.00 | 41 | 1013.9 |
| 20260504041822 | 66 | 146 | 0.0 | 3.5 | 0.00 | 0.00 | 0.00 | 41 | 1013.8 |
| 20260504041318 | 66 | 29 | 2.6 | 2.6 | 0.00 | 0.00 | 0.00 | 41 | 1013.9 |
| 20260504040815 | 67 | 66 | 2.6 | 4.3 | 0.00 | 0.00 | 0.00 | 41 | 1014.0 |
| 20260504040313 | 67 | 146 | 0.0 | 4.3 | 0.00 | 0.00 | 0.00 | 40 | 1013.9 |
| 20260504035808 | 67 | 276 | 2.6 | 4.3 | 0.00 | 0.00 | 0.00 | 40 | 1013.7 |
| 20260504035306 | 67 | 183 | 0.0 | 4.3 | 0.00 | 0.00 | 0.00 | 41 | 1013.8 |
| 20260504034803 | 67 | 170 | 1.7 | 3.5 | 0.00 | 0.00 | 0.00 | 40 | 1013.7 |
| 20260504034300 | 68 | 49 | 1.7 | 2.6 | 0.00 | 0.00 | 0.00 | 40 | 1013.6 |
| 20260504033757 | 67 | 242 | 7.8 | 7.8 | 0.00 | 0.00 | 0.00 | 41 | 1013.4 |
| 20260504033255 | 67 | 145 | 2.6 | 5.2 | 0.00 | 0.00 | 0.00 | 41 | 1013.5 |
| 20260504032751 | 68 | 68 | 0.0 | 5.2 | 0.00 | 0.00 | 0.00 | 41 | 1013.2 |
| 20260504032249 | 68 | 247 | 11.3 | 12.2 | 0.00 | 0.00 | 0.00 | 41 | 1013.1 |
| 20260504031745 | 68 | 263 | 10.4 | 14.8 | 0.00 | 0.00 | 0.00 | 40 | 1012.8 |
| 20260504031243 | 68 | 308 | 7.0 | 13.9 | 0.00 | 0.00 | 0.00 | 40 | 1012.7 |
| 20260504030738 | 68 | 282 | 7.0 | 20.0 | 0.00 | 0.00 | 0.00 | 42 | 1012.4 |
| 20260504030236 | 68 | 255 | 12.2 | 19.1 | 0.00 | 0.00 | 0.00 | 41 | 1012.5 |
| 20260504025732 | 68 | 253 | 12.2 | 18.2 | 0.00 | 0.00 | 0.00 | 42 | 1012.5 |
| 20260504025229 | 69 | 269 | 7.8 | 17.4 | 0.00 | 0.00 | 0.00 | 40 | 1012.4 |
| 20260504024726 | 69 | 291 | 7.0 | 16.5 | 0.00 | 0.00 | 0.00 | 39 | 1012.5 |
| 20260504024223 | 69 | 280 | 5.2 | 15.6 | 0.00 | 0.00 | 0.00 | 42 | 1012.7 |
| 20260504023720 | 69 | 268 | 6.1 | 13.0 | 0.00 | 0.00 | 0.00 | 42 | 1012.4 |
| 20260504023215 | 69 | 267 | 4.3 | 20.9 | 0.00 | 0.00 | 0.00 | 42 | 1012.4 |
| 20260504022712 | 70 | 262 | 6.1 | 13.9 | 0.00 | 0.00 | 0.00 | 39 | 1012.2 |
| 20260504022208 | 71 | 249 | 7.0 | 13.9 | 0.00 | 0.00 | 0.00 | 40 | 1012.1 |
| 20260504021706 | 72 | 242 | 7.8 | 13.0 | 0.00 | 0.00 | 0.00 | 37 | 1012.0 |
| 20260504021202 | 73 | 315 | 6.1 | 11.3 | 0.00 | 0.00 | 0.00 | 34 | 1011.8 |
| 20260504020659 | 73 | 312 | 8.7 | 15.6 | 0.00 | 0.00 | 0.00 | 36 | 1011.5 |
| 20260504020155 | 74 | 258 | 5.2 | 11.3 | 0.00 | 0.00 | 0.00 | 36 | 1011.2 |
| 20260504015652 | 74 | 261 | 7.8 | 12.2 | 0.00 | 0.00 | 0.00 | 36 | 1011.1 |
| 20260504015148 | 74 | 257 | 7.0 | 16.5 | 0.00 | 0.00 | 0.00 | 35 | 1011.2 |
| 20260504014644 | 75 | 247 | 9.6 | 10.4 | 0.00 | 0.00 | 0.00 | 34 | 1010.8 |
| 20260504014142 | 75 | 281 | 5.2 | 14.8 | 0.00 | 0.00 | 0.00 | 35 | 1010.8 |
| 20260504013639 | 75 | 259 | 8.7 | 10.4 | 0.00 | 0.00 | 0.00 | 35 | 1010.9 |
| 20260504013136 | 76 | 256 | 8.7 | 15.6 | 0.00 | 0.00 | 0.00 | 32 | 1010.8 |
| 20260504012633 | 77 | 245 | 5.2 | 9.6 | 0.00 | 0.00 | 0.00 | 31 | 1010.9 |
| 20260504012131 | 78 | 318 | 4.3 | 11.3 | 0.00 | 0.00 | 0.00 | 29 | 1010.7 |
| 20260504011622 | 79 | 32 | 1.7 | 7.0 | 0.00 | 0.00 | 0.00 | 27 | 1011.0 |
| 20260504011119 | 80 | 47 | 2.6 | 7.8 | 0.00 | 0.00 | 0.00 | 21 | 1010.6 |
| 20260504010614 | 81 | 253 | 7.8 | 11.3 | 0.00 | 0.00 | 0.00 | 22 | 1010.6 |
| 20260504010111 | 81 | 244 | 4.3 | 5.2 | 0.00 | 0.00 | 0.00 | 24 | 1010.7 |
| 20260504005608 | 81 | 246 | 7.0 | 9.6 | 0.00 | 0.00 | 0.00 | 27 | 1010.6 |
| 20260504005105 | 83 | 34 | 0.0 | 4.3 | 0.00 | 0.00 | 0.00 | 21 | 1010.3 |
| 20260504004603 | 82 | 238 | 5.2 | 8.7 | 0.00 | 0.00 | 0.00 | 23 | 1010.4 |
| 20260504004059 | 83 | 273 | 3.5 | 7.8 | 0.00 | 0.00 | 0.00 | 22 | 1010.4 |
| 20260504003554 | 86 | 330 | 6.1 | 7.0 | 0.00 | 0.00 | 0.00 | 17 | 1010.3 |
| 20260504003051 | 85 | 320 | 1.7 | 7.8 | 0.00 | 0.00 | 0.00 | 16 | 1010.1 |
| 20260504002548 | 84 | 230 | 8.7 | 19.1 | 0.00 | 0.00 | 0.00 | 21 | 1010.3 |
| 20260504002046 | 84 | 315 | 6.1 | 14.8 | 0.00 | 0.00 | 0.00 | 23 | 1010.2 |
| 20260504001544 | 83 | 262 | 14.8 | 21.7 | 0.00 | 0.00 | 0.00 | 22 | 1009.9 |
| 20260504001039 | 85 | 247 | 11.3 | 14.8 | 0.00 | 0.00 | 0.00 | 22 | 1010.3 |
| 20260504000537 | 85 | 271 | 8.7 | 16.5 | 0.00 | 0.00 | 0.00 | 21 | 1010.2 |
| 20260504000034 | 85 | 249 | 13.9 | 19.1 | 0.00 | 0.00 | 0.00 | 21 | 1010.2 |
| 20260503235532 | 86 | 242 | 12.2 | 14.8 | 0.00 | 0.00 | 0.00 | 20 | 1010.0 |
| 20260503235029 | 87 | 243 | 19.1 | 19.1 | 0.00 | 0.00 | 0.00 | 20 | 1010.0 |